Content
SEND FEEDBACK

Daily
Averages
Monthly
Summary
United States of America

ST. LOUIS, MISSOURI


Home > North America > United States > Missouri
Elevation: 535 feet     Latitude: 38 45N     Longitude: 090 22W

WEATHER
 
SELECT A DAY
Number of Records: 196,268;   Date Range: 1/1/95 - 7/20/14
 
SHARE

PRINT THIS DATA

[ ← Previous Day ]
WEATHER ALMANAC - OCTOBER 29, 2013
[ Next Day → ]
[ °C ]   °F
Weather ElementAverageHighLow
Temperature54.1 °F57.9 °F (3:54 pm)41 °F (3:54 am)
Dewpoint50 °F55.9 °F (8:54 pm)37.9 °F (3:54 am)
Humidity86.5 %96 % (8:54 pm)63 % (4:54 am)
Barometer30.12 in30.24 in (1:54 am)30.05 in (11:54 pm)
Wind Speed3.4 mph5.8 mph (6:54 am)
Weather ElementAverage
Visibility5 mi
Wind DirectionENE (65.5 °)

Weather ElementTotal
Precipitation0.19 in
Heating Degree Days15.6 (Base 65)
Averaged from 33 records on October 29, 2013
WEATHER CONDITIONS BREAKOUT
WIND DIRECTION BREAKOUT
WEATHER BY HOUR - OCTOBER 29, 2013
[ °C ]   °F
Local TimeTemperatureDewpointHumidityBarometerVisibilityWind DirectionWind SpeedGust SpeedPrecipitationEventsConditions
1:54 AM45.0 °F41.0 °F86 %30.24 in10.0 miCalmClear
2:54 AM44.1 °F39.9 °F85 %30.22 in10.0 miENE (70°)4.6 mphClear
3:54 AM41.0 °F37.9 °F89 %30.22 in10.0 miCalmClear
4:54 AM50.0 °F37.9 °F63 %30.22 in10.0 miESE (120°)4.6 mphClear
5:54 AM50.0 °F37.9 °F63 %30.21 in10.0 miEast (100°)4.6 mphClear
6:54 AM50.0 °F37.9 °F63 %30.20 in10.0 miSE (130°)5.8 mphClear
7:54 AM50.0 °F39.0 °F66 %30.21 in10.0 miEast (90°)5.8 mphOvercast
8:54 AM51.1 °F39.0 °F63 %30.24 in10.0 miSE (140°)4.6 mphOvercast
9:54 AM52.0 °F41.0 °F66 %30.24 in10.0 miCalm0.00 inOvercast
10:54 AM48.9 °F45.0 °F86 %30.24 in5.0 miEast (90°)3.5 mph0.05 inRainLight Rain
11:54 AM51.1 °F48.0 °F89 %30.21 in4.0 miEast (80°)5.8 mph0.04 inRainLight Rain
12:54 PM53.1 °F51.1 °F93 %30.17 in4.0 miVariable4.6 mph0.03 inRainLight Rain
1:54 PM55.9 °F53.1 °F90 %30.13 in5.0 miENE (70°)4.6 mph0.00 inOvercast
2:54 PM55.9 °F54.0 °F93 %30.09 in4.0 miSE (140°)3.5 mph0.00 inOvercast
3:27 PM57.2 °F55.4 °F94 %30.08 in4.0 miESE (120°)3.5 mphOvercast
3:54 PM57.9 °F55.0 °F90 %30.08 in3.0 miVariable4.6 mph0.00 inOvercast
4:41 PM57.2 °F53.6 °F88 %30.06 in2.5 miEast (100°)5.8 mph0.01 inRainLight Rain
4:50 PM57.2 °F53.6 °F88 %30.06 in4.0 miEast (100°)5.8 mph0.01 inOvercast
4:54 PM57.0 °F54.0 °F89 %30.06 in4.0 miESE (110°)3.5 mph0.01 inOvercast
5:18 PM57.2 °F53.6 °F88 %30.06 in2.5 miESE (110°)3.5 mphOvercast
5:54 PM57.0 °F55.0 °F93 %30.06 in3.0 miCalmOvercast
6:15 PM57.2 °F55.4 °F94 %30.06 in5.0 miVariable3.5 mphOvercast
6:54 PM57.9 °F55.0 °F90 %30.06 in5.0 miCalm0.00 inOvercast
7:54 PM57.0 °F55.0 °F93 %30.07 in3.0 miENE (70°)4.6 mphOvercast
8:54 PM57.0 °F55.9 °F96 %30.07 in2.0 miENE (70°)5.8 mph0.01 inRainLight Rain
9:54 PM57.0 °F55.9 °F96 %30.08 in2.0 miENE (70°)3.5 mph0.00 inRainLight Rain
10:16 PM57.2 °F55.4 °F94 %30.07 in2.0 miENE (60°)3.5 mph0.01 inRainLight Rain
10:29 PM57.2 °F55.4 °F94 %30.07 in2.0 miEast (90°)3.5 mph0.01 inOvercast
10:54 PM57.0 °F55.9 °F96 %30.06 in2.0 miEast (80°)3.5 mph0.01 inOvercast
11:01 PM57.2 °F55.4 °F94 %30.06 in1.8 miENE (70°)3.5 mphOvercast
11:11 PM57.2 °F55.4 °F94 %30.06 in1.8 miEast (80°)3.5 mphOvercast
11:29 PM57.2 °F55.4 °F94 %30.06 in2.0 miCalmOvercast
11:54 PM57.0 °F55.9 °F96 %30.05 in2.5 miCalmOvercast
Hourly data recorded from KSUS, located miles away from St. Louis, Missouri







STORIES FROM OUR PARTNERS